Погода в Туапсе

Россия / Краснодарский край     44°05′44″N   39°04′24″E
темп.,
°C
ветер,
м/с
пор.,
м/с
влажн.,
%
обл.,
%
осадки,
мм/ч
давл.,
гПа
погр.,
м
14 мая, пт
пт1400:00+18всв44650 0.0 100914
03:00+18в44623 0.0 100918
06:00+18ссв44575 0.0 100912
09:00+18ю11655 0.0 101013
12:00+19ююв22590 0.0 101116
15:00+18юв236513 0.0 101174
18:00+18ю2280100 0.0 101118
21:00+17ссв22785 0.0 101111
15 мая, сб
сб1500:00+18ююв33750 0.0 101216
03:00+16вюв45860 0.0 101353
06:00+16в44855 0.0 101368
09:00+17ююв23815 0.0 101326
12:00+16ююв348614 0.0 101471
15:00+16в118442 0.0 101372
18:00+15ссз118417 0.0 101154
21:00+16юв56841 0.0 1012119
16 мая, вс
вс1600:00+16вюв22845 0.0 101131
03:00+16зсз1185100 0.0 101011
06:00+16зсз3386100 0.0 100921
09:00+17зюз1193100 0.0 100815
12:00+19юз228894 0.0 100624
15:00+19зюз119017 0.0 100428
18:00+19сз338959 0.1 100236
21:00+19ююв338912 0.1 100317
17 мая, пн
пн1700:00+17сз3490100 0.0 100442
03:00+17в2392100 0.0 100417
06:00+16ююв91091100 0.0 1006250
09:00+16юв5790100 0.0 1008191
12:00+16ююв7891100 0.0 1010269
15:00+16ююв67917 0.0 1010290
18:00+16ю3388100 0.0 101092
21:00+16юв468990 0.1 1012146
18 мая, вт
вт1800:00+16ююв91392100 0.0 1013525
03:00+16юв81293100 0.0 1013471
06:00+16юв7109384 0.1 1014423
09:00+16ююв699429 0.1 1015381
12:00+16ююв699315 0.0 1016381
15:00+16ююв78926 0.0 1016348
18:00+16ююв57910 0.0 1015269
21:00+16юв46900 0.0 1016137